Regional Weather Roundup
Issued by NWS

Home | Current Version | Previous Version | Graphics & Text | Print | Product List | Glossary On
Versions: 1 2 3 4 5 6 7 8 9 10 11 12 13 14 15 16 17 18 19 20 21 22 23 24 25 26 27 28 29 30 31 32 33 34 35 36 37 38 39 40 41 42 43 44 45 46 47 48 49 50
000
ASUS43 KFSD 210202
RWRSD

WEATHER ROUNDUP FOR SOUTH DAKOTA
NATIONAL WEATHER SERVICE SIOUX FALLS SD
900 PM CDT FRI OCT 20 2017

NOTE: "FAIR" INDICATES FEW OR NO CLOUDS BELOW 12,000 FEET WITH NO
SIGNIFICANT WEATHER AND/OR OBSTRUCTIONS TO VISIBILITY.


SDZ001>005-009-010-012>017-210300-
NORTHWEST AND NORTH CENTRAL SOUTH DAKOTA

CITY           SKY/WX    TMP DP  RH WIND       PRES   REMARKS
BUFFALO          N/A     64  33  31 SW9       29.21S
FAITH            N/A     66  46  48 S17       29.29S
MOBRIDGE       CLEAR     66  54  65 SE16      29.29F
$$

SDZ012>016-024>037-041>051-057-063-072>074-210300-
SOUTHWEST AND SOUTH CENTRAL SOUTH DAKOTA

CITY           SKY/WX    TMP DP  RH WIND       PRES   REMARKS
RAPID CTY ARPT CLOUDY    52  34  50 CALM      29.34S
PIERRE         CLEAR     64  54  69 SE15      29.35F
CUSTER         PTCLDY    60  27  28 SW5       29.48S
ELLSWORTH AFB  CLOUDY    64  32  30 W3        29.33F
PHILIP         CLEAR     68  51  54 S21       29.32F
PINE RIDGE     CLOUDY    68  48  48 S15G25    29.40F
SPEARFISH      FAIR      68  30  24 SW12G17   29.36S
WINNER         FAIR      70  54  56 S23G31    29.41F
$$

SDZ004>011-016>023-039-040-210300-
NORTHEAST SOUTH DAKOTA

CITY           SKY/WX    TMP DP  RH WIND       PRES   REMARKS
ABERDEEN       MOCLDY    69  56  62 S22G28    29.41S
WATERTOWN      PTCLDY    66  57  72 S21       29.50F
BROOKINGS      CLOUDY    68  57  68 S21G31    29.55S
SISSETON         N/A     69  56  62 S16G23    29.47S
$$

SDZ017-020-022-023-036>040-048>070-210300-
SOUTHEAST SOUTH DAKOTA

CITY           SKY/WX    TMP DP  RH WIND       PRES   REMARKS
SIOUX FALLS    MOCLDY    71  59  65 S21G35    29.58S
HURON          PTCLDY    70  57  63 S16G25    29.45S
CHAMBERLAIN    CLOUDY    69  57  64 S15       29.43S
MITCHELL       PTCLDY    72  57  59 S17G25    29.49S
YANKTON        PTCLDY    70  59  68 SE13      29.56S
$$

ABBREVIATIONS USED IN REMARKS
   TC - TEMPERATURE IN CELSIUS
  WCI - WIND CHILL INDEX
   HX - HEAT INDEX
  VSB - VISIBILITY





USA.gov is the U.S. government's official web portal to all federal, state and local government web resources and services.